This is the latest recevied weather packets stored in our database for station/object K0CVS. If no packets are shown the sender has not sent any weather packets the latest 10 day(s).
| Time | Temp. | Humidity | Pressure | Rain* | Wind** | Luminosity | Snow |
|---|---|---|---|---|---|---|---|
| 1778027002 | 10.56° C | 85% | 1012.1 hPa | 0 mm | - | 13 W/m² | - |
| 1778026698 | 10.56° C | 84% | 1012.2 hPa | 0 mm | - | 15 W/m² | - |
| 1778026396 | 10.56° C | 83% | 1011.9 hPa | 0 mm | - | 21 W/m² | - |
| 1778026092 | 10.56° C | 83% | 1011.7 hPa | 0 mm | - | 22 W/m² | - |
| 1778025790 | 10.56° C | 83% | 1011.8 hPa | 1.27 mm | - | 25 W/m² | - |
| 1778025486 | 10.56° C | 83% | 1011.8 hPa | 1.27 mm | - | 20 W/m² | - |
| 1778025184 | 10.56° C | 81% | 1012 hPa | 0 mm | - | 28 W/m² | - |
| 1778024881 | 10.56° C | 81% | 1011.7 hPa | 0 mm | - | 38 W/m² | - |
| 1778024579 | 10.56° C | 82% | 1011.6 hPa | 0 mm | - | 47 W/m² | - |
| 1778024275 | 10.56° C | 83% | 1012 hPa | 0 mm | - | 39 W/m² | - |
| 1778023973 | 10.56° C | 83% | 1011.8 hPa | 0 mm | - | 42 W/m² | - |
| 1778023670 | 10.56° C | 85% | 1011.8 hPa | 0 mm | - | 49 W/m² | - |
| 1778023368 | 10.56° C | 85% | 1011.9 hPa | 0 mm | - | 54 W/m² | - |
| 1778023063 | 10.56° C | 84% | 1011.8 hPa | 0 mm | - | 40 W/m² | - |
| 1778022763 | 10.56° C | 85% | 1012.2 hPa | 0 mm | - | 38 W/m² | - |
| 1778022461 | 10.56° C | 84% | 1012 hPa | 0 mm | - | 45 W/m² | - |
| 1778022157 | 10.56° C | 83% | 1012.1 hPa | 0 mm | - | 43 W/m² | - |
| 1778021854 | 10.56° C | 83% | 1012.2 hPa | 0 mm | - | 42 W/m² | - |
| 1778021551 | 10.56° C | 84% | 1012 hPa | 0 mm | - | 40 W/m² | - |
| 1778021246 | 10.56° C | 84% | 1011.9 hPa | 0 mm | - | 52 W/m² | - |
| 1778020944 | 10.56° C | 84% | 1011.7 hPa | 0 mm | - | 62 W/m² | - |
| 1778020641 | 10.56° C | 83% | 1011.8 hPa | 0 mm | - | 48 W/m² | - |
| 1778020337 | 10.56° C | 83% | 1011.8 hPa | 0 mm | - | 54 W/m² | - |
| 1778020033 | 10.56° C | 82% | 1012 hPa | 0 mm | - | 61 W/m² | - |
| 1778019729 | 10.56° C | 83% | 1012 hPa | 0 mm | - | 52 W/m² | - |
* Rain latest hour (hover to see other rain measurements)
** Current wind speed in m/s (hover to see current wind gust speed)